Вернуться в каталог

SAUDIGEOSAT1/HELLASSAT4

АктивенСвязьGEO
NORAD 44034·PAYLOAD·🇬🇷 Greece

Запущен Feb 5, 2019 с Guiana Space Centre

Loading…

TLE

СвежийSource: Space-Track

Эпоха: Sep 14, 2026, 13:59 UTC

1 44034U 19007A   26257.58290104  .00000145  00000-0  00000-0 0  9993
2 44034   0.0640 130.8184 0006200  30.8342  80.7653  1.00273566 28278

Отслеживайте SAUDIGEOSAT1/HELLASSAT4 в реальном времени с AllMySat

Download on the App Store